, NV

(GMT )
Eureka Airport

Weather History for K05U - May, 2013

Change the Weather History Date:

Thursday, May 2, 2013

  Actual Average Record
Temperature  
Mean Temperature 42 °F -  
Max Temperature 66 °F - - ()
Min Temperature 17 °F - - ()
Degree Days  
Heating Degree Days 24    
Moisture  
Dew Point 2 °F    
Average Humidity 21    
Maximum Humidity 46    
Minimum Humidity 7    
Precipitation  
Precipitation 0.00 in - - ()
Sea Level Pressure  
Sea Level Pressure 30.49 in    
Wind  
Wind Speed 3 mph (South)    
Max Wind Speed 12 mph    
Max Gust Speed 21 mph    
Visibility 10 miles    
Events      
Averages and records for this station are not official NWS values.
T = Trace of Precipitation, MM = Missing Value Source: NWS Daily Summary

Daily Weather History Graph

Daily Weather History Graph

Search for Another Location

Airport or City:

Trip Planner

Search our weather history database for the weather conditions in past years. The results will help you decide how hot, cold, wet, or windy it might be!

Date:

Astronomy

May. 02, 2013 Rise Set
Actual Time 5:43 AM PDT 7:39 PM PDT
Civil Twilight 5:13 AM PDT 8:08 PM PDT
Nautical Twilight 4:38 AM PDT 8:44 PM PDT
Astronomical Twilight 4:00 AM PDT 9:22 PM PDT
Moon 1:31 AM PDT (5/2) 12:35 PM PDT (5/2)
Length of Visible Light 14h 54m
Length of Day
13h 56m
Waning Gibbous, 46% of the Moon is Illuminated
May 2
Waning Gibbous
May 9
New
May 17
First Quarter
May 24
Full
May 31
Last Quarter

Hourly Weather History & Observations

Time (PDT) Temp. Windchill Dew Point Humidity Pressure Visibility Wind Dir Wind Speed Gust Speed Precip Events Conditions
12:10 AM 24.8 °F 19.1 °F -0.4 °F 34% 30.56 in 10.0 mi SSW 4.6 mph - N/A   Clear
12:30 AM 23.0 °F - -2.2 °F 33% 30.56 in 10.0 mi Calm Calm - N/A   Clear
12:50 AM 23.0 °F - -2.2 °F 33% 30.56 in 10.0 mi Calm Calm - N/A   Clear
1:10 AM 23.0 °F - -0.4 °F 36% 30.57 in 10.0 mi Calm Calm - N/A   Clear
1:30 AM 19.4 °F - 1.4 °F 46% 30.57 in 10.0 mi Calm Calm - N/A   Clear
1:50 AM 21.2 °F - -0.4 °F 39% 30.57 in 10.0 mi Calm Calm - N/A   Clear
2:10 AM 21.2 °F 16.4 °F -2.2 °F 36% 30.57 in 10.0 mi SW 3.5 mph - N/A   Clear
2:30 AM 19.4 °F - -2.2 °F 39% 30.57 in 10.0 mi Calm Calm - N/A   Clear
2:50 AM 19.4 °F - -2.2 °F 39% 30.57 in 10.0 mi Calm Calm - N/A   Clear
3:10 AM 19.4 °F 12.8 °F -2.2 °F 39% 30.57 in 10.0 mi South 4.6 mph - N/A   Clear
3:30 AM 19.4 °F 14.3 °F -0.4 °F 42% 30.58 in 10.0 mi SSW 3.5 mph - N/A   Clear
3:50 AM 19.4 °F 12.8 °F -0.4 °F 42% 30.58 in 10.0 mi SW 4.6 mph - N/A   Clear
4:10 AM 19.4 °F 11.5 °F -0.4 °F 42% 30.58 in 10.0 mi South 5.8 mph - N/A   Clear
4:30 AM 19.4 °F - -2.2 °F 39% 30.58 in 10.0 mi Calm Calm - N/A   Clear
4:50 AM 21.2 °F 13.6 °F -0.4 °F 39% 30.59 in 10.0 mi South 5.8 mph - N/A   Clear
5:10 AM 19.4 °F - -0.4 °F 42% 30.59 in 10.0 mi Calm Calm - N/A   Clear
5:30 AM 17.6 °F - -2.2 °F 42% 30.59 in 10.0 mi Calm Calm - N/A   Clear
5:50 AM - - - N/A% - 10.0 mi North - - N/A   Clear
6:10 AM 21.2 °F 14.9 °F -0.4 °F 39% 30.59 in 10.0 mi South 4.6 mph - N/A   Clear
6:30 AM 23.0 °F - 3.2 °F 43% 30.59 in 10.0 mi Calm Calm - N/A   Clear
6:50 AM 26.6 °F - -0.4 °F 31% 30.59 in 10.0 mi Calm Calm - N/A   Clear
7:10 AM 32.0 °F 26.4 °F 1.4 °F 27% 30.59 in 10.0 mi SW 5.8 mph - N/A   Clear
7:30 AM 37.4 °F 34.9 °F -0.4 °F 20% 30.59 in 10.0 mi West 3.5 mph - N/A   Clear
7:50 AM 41.0 °F - 1.4 °F 19% 30.59 in 10.0 mi Calm Calm - N/A   Clear
8:10 AM 44.6 °F - 1.4 °F 17% 30.59 in 10.0 mi Calm Calm - N/A   Clear
8:30 AM 46.4 °F 45.2 °F -0.4 °F 14% 30.59 in 10.0 mi NW 3.5 mph - N/A   Clear
8:50 AM 48.2 °F - -0.4 °F 13% 30.58 in 10.0 mi Calm Calm - N/A   Clear
9:10 AM 48.2 °F - -0.4 °F 13% 30.58 in 10.0 mi West 3.5 mph - N/A   Clear
9:30 AM 48.2 °F - -0.4 °F 13% 30.58 in 10.0 mi Calm Calm - N/A   Clear
9:50 AM 50.0 °F - -0.4 °F 13% 30.57 in 10.0 mi Calm Calm - N/A   Clear
10:10 AM 53.6 °F - -0.4 °F 11% 30.56 in 10.0 mi ESE 3.5 mph - N/A   Clear
10:50 AM 53.6 °F - -0.4 °F 11% 30.55 in 10.0 mi East 5.8 mph - N/A   Clear
11:10 AM 53.6 °F - -0.4 °F 11% 30.55 in 10.0 mi East 4.6 mph - N/A   Clear
11:30 AM 55.4 °F - -0.4 °F 10% 30.54 in 10.0 mi SSW 3.5 mph - N/A   Clear
11:50 AM 57.2 °F - -0.4 °F 10% 30.53 in 10.0 mi SSE 3.5 mph - N/A   Clear
12:10 PM 59.0 °F - -0.4 °F 9% 30.52 in 10.0 mi SW 4.6 mph - N/A   Clear
12:30 PM 59.0 °F - 1.4 °F 10% 30.51 in 10.0 mi ESE 4.6 mph - N/A   Clear
12:50 PM 60.8 °F - 1.4 °F 9% 30.50 in 10.0 mi North 4.6 mph - N/A   Clear
1:10 PM 62.6 °F - 1.4 °F 9% 30.49 in 10.0 mi East 3.5 mph - N/A   Clear
1:30 PM 62.6 °F - -0.4 °F 8% 30.48 in 10.0 mi SSW 8.1 mph - N/A   Clear
1:50 PM 64.4 °F - 1.4 °F 8% 30.48 in 10.0 mi SW 6.9 mph - N/A   Clear
2:10 PM 64.4 °F - -0.4 °F 7% 30.47 in 10.0 mi SW 8.1 mph - N/A   Clear
2:30 PM 66.2 °F - 1.4 °F 8% 30.46 in 10.0 mi SE 8.1 mph 20.7 mph N/A   Clear
2:50 PM 64.4 °F - 1.4 °F 8% 30.45 in 10.0 mi SE 5.8 mph - N/A   Clear
3:10 PM 66.2 °F - 3.2 °F 8% 30.44 in 10.0 mi SE 6.9 mph - N/A   Clear
3:30 PM 66.2 °F - 3.2 °F 8% 30.43 in 10.0 mi SSE 9.2 mph - N/A   Clear
3:50 PM 66.2 °F - 3.2 °F 8% 30.42 in 10.0 mi South 8.1 mph - N/A   Clear
4:10 PM 66.2 °F - 3.2 °F 8% 30.42 in 10.0 mi SSE 4.6 mph - N/A   Clear
4:30 PM 66.2 °F - 3.2 °F 8% 30.41 in 10.0 mi SE 6.9 mph - N/A   Clear
4:50 PM 66.2 °F - 1.4 °F 8% 30.40 in 10.0 mi South 11.5 mph - N/A   Clear
5:10 PM 66.2 °F - 3.2 °F 8% 30.40 in 10.0 mi South 6.9 mph - N/A   Clear
5:30 PM 66.2 °F - 1.4 °F 8% 30.39 in 10.0 mi SSE 10.4 mph - N/A   Clear
5:50 PM 66.2 °F - 1.4 °F 8% 30.39 in 10.0 mi SSE 10.4 mph - N/A   Clear
6:10 PM 64.4 °F - 1.4 °F 8% 30.39 in 10.0 mi SE 9.2 mph - N/A   Clear
6:30 PM 64.4 °F - 6.8 °F 10% 30.38 in 10.0 mi SSE 9.2 mph - N/A   Clear
6:50 PM 62.6 °F - 5.0 °F 10% 30.37 in 10.0 mi SSE 8.1 mph - N/A   Clear
7:10 PM 59.0 °F - 6.8 °F 13% 30.37 in 10.0 mi SSE 8.1 mph - N/A   Clear
7:30 PM 55.4 °F - 8.6 °F 15% 30.36 in 10.0 mi SSE 9.2 mph - N/A   Clear
7:50 PM 53.6 °F - 5.0 °F 14% 30.36 in 10.0 mi SSE 6.9 mph - N/A   Clear
8:10 PM 48.2 °F - 10.4 °F 22% 30.37 in 10.0 mi SE 8.1 mph - N/A   Clear
8:30 PM 46.4 °F 44.3 °F 8.6 °F 22% 30.37 in 10.0 mi SSW 4.6 mph - N/A   Clear
8:50 PM 42.8 °F - 8.6 °F 25% 30.37 in 10.0 mi Calm Calm - N/A   Clear
9:10 PM 41.0 °F - 5.0 °F 23% 30.37 in 10.0 mi Calm Calm - N/A   Clear
9:30 PM 42.8 °F - 6.8 °F 23% 30.37 in 10.0 mi Calm Calm - N/A   Clear
9:50 PM 37.4 °F - 1.4 °F 22% 30.37 in 10.0 mi Calm Calm - N/A   Clear
10:10 PM 39.2 °F - 5.0 °F 24% 30.37 in 10.0 mi Calm Calm - N/A   Clear
10:30 PM 42.8 °F - 3.2 °F 19% 30.37 in 10.0 mi Calm Calm - N/A   Clear
10:50 PM 37.4 °F - 1.4 °F 22% 30.36 in 10.0 mi Calm Calm - N/A   Clear
11:10 PM 39.2 °F - 3.2 °F 22% 30.36 in 10.0 mi Calm Calm - N/A   Clear
11:30 PM 37.4 °F - 3.2 °F 24% 30.36 in 10.0 mi Calm Calm - N/A   Clear
11:50 PM 35.6 °F 30.7 °F 6.8 °F 30% 30.35 in 10.0 mi South 5.8 mph - N/A   Clear